STARLINK-5988, 56320

Orbit data source: Space-Track

STARLINK-5988, 56320 is a payload satellite owned by SpaceX/Seattle (US) in SSO that was launched on Thu, 27 Apr 2023 UTC via an FALCON 9 launch vehicle from the Air Force Western Test Range (AFWTR). Payload-class satellites include a variety of spacecraft equipped with specific instruments for various scientific and technological missions. These include communications satellites like Starlink; space stations such as the ISS; scientific satellites like the Hubble; Earth observation satellites from companies like Planet Labs, Umbra, and HawkEye 360; GPS; miniature CubeSats for education and research; and military/defense satellites.

Loading next visibility...
Identifier
56320, 2023-058D
Orbit
SSO
Country
Flag of USUS
Related business
Manufacturer
SpaceX/Seattle
Mission
Operational Commercial Communications
Bus & Motor
STARLINK, Unknown motor
Mass
300 kg wet, ~260 kg dry
Launch date (UTC)
2023-04-27 (3 years ago)
Launch vehicle
FALCON 9
Launch site
Air Force Western Test Range (AFWTR)
Object type
Payload
Rocket body
Debris
Shape & HBR
Box + 1 Pan, 10.1 m
Radar Cross Section
11.087 m², Large (>1 m²)

Expand to show TLE details & history
Last TLE update: 3 days ago

TLE from 3 days ago
0 STARLINK-5988
1 56320U 23058D   26170.92536073 -.00000880  00000-0 -57017-4 0  9997
2 56320  97.3428 169.7538 0002968 106.8366 253.3187 15.05647627173165
Epoch: 2026-06-19T22:12Z
TLE epoch observation values (Epoch: 2026-06-19T22:12:31.167Z)
Latitude
-0.00002°
Longitude
-71.5234°
Altitude
553.182 km
Speed
7.585 km/s
True Right ascension
11h 19m 00s
True Declination
0° 00' 00"
Sunlit
Object was in daylight at epoch
Visualization orbit readout
Latitude
Unknown
Longitude
Unknown
Altitude
Unknown
Speed
Unknown
Apparent Right ascension
Unknown
Apparent Declination
Unknown
Sunlit
N/A
Visualization observer readout
Local Sidereal Time
21:25:30
Azimuth
Unknown
Elevation
Unknown
Doppler factor
Unknown
Orbital elements
Apogee altitude
548.556 km
Perigee altitude
544.446 km
Semi-major axis
6,924.638 km
Eccentricity
0.0003
Inclination
97.3428°
RAAN
169.7538°
Arg. of periapsis
106.8366°
True anomaly
253.28612°
Mean anomaly
253.3187°
Eccentric anomaly
253.30241°
Mean motion
3.76658 °/min
Orbital period
95.58 mins
BSTAR
-0.000057017
Loading maneuver chart data...
Computing Atmospheric mass density...
Loading historical data...
Loading historical data...
Loading historical data...
Loading historical data...
Loading historical data...
Loading historical data...
Loading historical data...

Documentation

Showing up to 5 results
|